Worcester, MA

9:22 AM EDT on June 29, 2017 (GMT -0400)
Worcester Regional

Weather History for KORH - March, 2013

Change the Weather History Date:

Saturday, March 23, 2013

  Actual Average Record
Temperature  
Mean Temperature 31 °F 37 °F  
Max Temperature 37 °F 45 °F 78 °F (1938)
Min Temperature 24 °F 29 °F 4 °F (1934)
Degree Days  
Heating Degree Days 34 28  
Month to date heating degree days 761 727  
Since 1 July heating degree days 5198 5564  
Cooling Degree Days 0 0  
Month to date cooling degree days 0 0  
Year to date cooling degree days 0 0  
Moisture  
Dew Point 17 °F    
Average Humidity 63    
Maximum Humidity 81    
Minimum Humidity 44    
Precipitation  
Precipitation 0.00 in 0.15 in 1.81 in (1903)
Month to date precipitation 3.35 3.05  
Year to date precipitation 10.23 9.77  
Sea Level Pressure  
Sea Level Pressure 29.73 in    
Wind  
Wind Speed 15 mph (West)    
Max Wind Speed 33 mph    
Max Gust Speed 44 mph    
Visibility 10 miles    
Events      
T = Trace of Precipitation, MM = Missing Value Source: NWS Daily Summary

Daily Weather History Graph

Daily Weather History Graph

Search for Another Location

Airport or City:

Trip Planner

Search our weather history database for the weather conditions in past years. The results will help you decide how hot, cold, wet, or windy it might be!

Date:

Astronomy

Mar. 23, 2013 Rise Set
Actual Time 6:45 AM EDT 7:03 PM EDT
Civil Twilight 6:17 AM EDT 7:31 PM EDT
Nautical Twilight 5:44 AM EDT 8:04 PM EDT
Astronomical Twilight 5:10 AM EDT 8:38 PM EDT
Moon 3:23 PM EDT (3/23) 4:23 AM EDT (3/23)
Length of Visible Light 13h 14m
Length of Day
12h 18m
Waxing Gibbous, 85% of the Moon is Illuminated
Mar 23
Waxing Gibbous
Mar 27
Full
Apr 3
Last Quarter
Apr 10
New
Apr 18
First Quarter

Hourly Weather History & Observations

Time (EDT) Temp. Windchill Dew Point Humidity Pressure Visibility Wind Dir Wind Speed Gust Speed Precip Events Conditions
12:54 AM 26.1 °F 14.0 °F 16.0 °F 66% 29.76 in 10.0 mi WNW 15.0 mph - N/A   Clear
1:54 AM 26.1 °F 15.6 °F 16.0 °F 66% 29.76 in 10.0 mi West 11.5 mph - N/A   Scattered Clouds
2:52 AM 24.8 °F 20.5 °F 17.6 °F 74% 29.72 in 10.0 mi West 3.5 mph - N/A   Mostly Cloudy
2:54 AM 25.0 °F 20.7 °F 17.1 °F 72% 29.75 in 10.0 mi WSW 3.5 mph - N/A   Mostly Cloudy
3:34 AM 24.1 °F 16.0 °F 17.1 °F 75% 29.70 in 10.0 mi West 6.9 mph - N/A   Scattered Clouds
3:54 AM 25.0 °F 16.3 °F 18.0 °F 75% 29.73 in 10.0 mi West 8.1 mph - N/A   Clear
4:54 AM 26.1 °F 15.6 °F 19.0 °F 75% 29.72 in 10.0 mi West 11.5 mph - N/A   Scattered Clouds
5:54 AM 27.0 °F 18.7 °F 19.9 °F 75% 29.73 in 10.0 mi West 8.1 mph - N/A   Overcast
7:54 AM 27.0 °F 15.2 °F 21.0 °F 78% 29.73 in 10.0 mi West 15.0 mph 24.2 mph N/A   Clear
8:54 AM 30.2 °F 17.1 °F 19.4 °F 64% 29.68 in 10.0 mi West 21.9 mph 31.1 mph N/A   Clear
9:54 AM 30.9 °F 18.4 °F 17.1 °F 57% 29.72 in 10.0 mi West 20.7 mph 36.8 mph N/A   Overcast
10:54 AM 33.1 °F 20.9 °F 16.0 °F 50% 29.71 in 10.0 mi WNW 21.9 mph 28.8 mph N/A   Mostly Cloudy
11:54 AM 32.0 °F 19.5 °F 15.1 °F 50% 29.71 in 10.0 mi WNW 21.9 mph 28.8 mph N/A   Mostly Cloudy
12:54 PM 34.0 °F 24.2 °F 15.1 °F 46% 29.70 in 10.0 mi West 15.0 mph 32.2 mph N/A   Mostly Cloudy
1:54 PM 35.1 °F 23.5 °F 15.1 °F 44% 29.69 in 10.0 mi West 21.9 mph 29.9 mph N/A   Mostly Cloudy
2:54 PM 36.0 °F 24.7 °F 15.1 °F 43% 29.68 in 10.0 mi West 21.9 mph 32.2 mph N/A   Mostly Cloudy
3:54 PM 36.0 °F 23.9 °F 16.0 °F 44% 29.68 in 10.0 mi West 25.3 mph 36.8 mph N/A   Overcast
4:54 PM 36.0 °F 26.3 °F 17.1 °F 46% 29.69 in 10.0 mi NW 16.1 mph 31.1 mph N/A   Overcast
5:54 PM 35.1 °F 22.7 °F 17.1 °F 48% 29.71 in 10.0 mi WNW 25.3 mph 35.7 mph N/A   Partly Cloudy
6:54 PM 34.0 °F 22.4 °F 15.1 °F 46% 29.73 in 10.0 mi WNW 20.7 mph 28.8 mph N/A   Clear
7:54 PM 33.1 °F 23.9 °F 16.0 °F 50% 29.76 in 10.0 mi West 12.7 mph 25.3 mph N/A   Clear
8:54 PM 32.0 °F 24.2 °F 16.0 °F 52% 29.79 in 10.0 mi NW 9.2 mph - N/A   Partly Cloudy
9:54 PM 32.0 °F 23.6 °F 16.0 °F 52% 29.80 in 10.0 mi West 10.4 mph - N/A   Mostly Cloudy
10:54 PM 30.9 °F 22.8 °F 15.1 °F 52% 29.81 in 10.0 mi West 9.2 mph - N/A   Mostly Cloudy
11:54 PM 30.0 °F 22.4 °F 16.0 °F 56% 29.81 in 10.0 mi West 8.1 mph - N/A   Overcast